Location: Anmer
(52.8333°N, 0.5833°E)
Time: 20:14:41
(UTC+00:00)

Cosmos 2322 Rocket - Pass Details

Date: 15 May 2026
Orbit: 831 x 850 km, 71.0° (Epoch: 8 June)

Event Time Altitude Azimuth Distance (km) Brightness Sun altitude
Rises 20:31:51 0° 329° (NNW) 3,406 7.2 -5.9°
Reaches altitude 10° 20:34:21 10° 333° (NNW) 2,470 6.0 -6.2°
Maximum altitude 20:39:57 59° 53° (NE) 978 2.5 -6.8°
Drops below altitude 10° 20:45:33 10° 133° (SE) 2,469 3.9 -7.4°
Enters shadow 20:45:47 - 133° (SE) 2,554 4.0 -7.4°
